カタログに戻る

FENGYUN 1C DEB

運用中PO
NORAD 30339·DEBRIS·🇨🇳 China

打ち上げ May 10, 1999 から Taiyuan Satellite Launch Center

Loading…

次のパス (今後24時間)

TLE

最新Source: Space-Track

元期: Sep 14, 2026, 19:59 UTC

1 30339U 99025ABA 26257.83267877  .00004641  00000-0  14310-2 0  9999
2 30339  98.9781  22.5237 0018301 343.9939 176.6632 14.41822357 13985

AllMySatでFENGYUN 1C DEBをリアルタイム追跡

Download on the App Store